Regional Weather Roundup
Issued by NWS Bismarck, ND

Home | Current Version | Previous Version | Text Only | Print | Product List | Glossary On
Versions: 1 2 3 4 5 6 7 8 9 10 11 12 13 14 15 16 17 18 19 20 21 22 23 24 25 26 27 28 29 30 31 32 33 34 35 36 37 38 39 40 41 42 43 44 45 46 47 48 49 50
000
ASUS43 KBIS 260710
RWRBIS

NWR BROADCAST TEXT
NATIONAL WEATHER SERVICE BISMARCK ND
200 AM CDT THU MAY 26 2016

NOTE: "FAIR" INDICATES FEW OR NO CLOUDS BELOW 12,000 FEET WITH NO
SIGNIFICANT WEATHER AND/OR OBSTRUCTIONS TO VISIBILITY.


CITY           SKY/WX    TMP DP  RH WIND       PRES   REMARKS
WILLISTON      PTCLDY    46  45  96 S7        29.81S
MINOT          CLOUDY    58  55  90 SW12      29.74R
MINOT AFB      MOCLDY    52  52 100 W7        29.73R
BISMARCK       CLEAR     50  48  93 W6        29.80R
DICKINSON      CLEAR     42  39  89 W6        29.81R
GARRISON         N/A     54  51  90 W12       29.76F
HETTINGER ARPT CLEAR     38  36  92 NW7       29.86S
JAMESTOWN      PTCLDY    56  56 100 S3        29.73S
BEACH          CLOUDY    48  48 100 SW5       29.87S
CARRINGTON     FAIR      57  55  94 NW3       29.75F FOG
HAZEN          FAIR      48  46  93 SW7       29.81S
LINTON           N/A     48  48 100 W7          N/A
MANDAN         FAIR      46  46 100 W6        29.80S
OAKES            N/A    N/A N/A N/A MISG        N/A
RUGBY          FAIR      54  54 100 E5        29.74F
STANLEY        CLOUDY    52  52 100 NW8G15    29.79F FOG
WATFORD CITY   FAIR      41  41 100 SW7       29.81S
$$

CITY           SKY/WX    TMP DP  RH WIND       PRES   REMARKS
GRAND FORKS    CLOUDY    56  54  93 SW5       29.69F
GRAND FORKS AF CLOUDY    56  56 100 W6        29.69F
DEVILS LAKE    CLOUDY    53  53 100 NW5       29.74F
FARGO          CLEAR     54  52  93 W5        29.72R
CAVALIER       CLOUDY    57  57 100 W13       29.65F
GRAFTON        CLOUDY    57  57 100 SW13      29.69S
GWINNER        FAIR      55  54  94 SW9       29.75S
LANGDON        CLOUDY    55  55 100 W10       29.70F
ROLLA          LGT RAIN  54  54 100 N5        29.76F
WALHALLA       FAIR      55  55 100 NW9       29.65F
$$

CITY           SKY/WX    TMP DP  RH WIND       PRES   REMARKS
ABERDEEN       CLEAR     52  49  89 SW7       29.79F
MOBRIDGE       CLEAR     49  45  86 CALM      29.80S
BUFFALO          N/A     45  40  82 W9        29.81S
RAPID CITY     CLEAR     46  44  93 CALM      29.90S
GLASGOW        PTCLDY    47  42  83 W7        29.83F
SIDNEY         CLEAR     48  45  87 NW3       29.83R
WOLF POINT     PTCLDY    46  43  89 SW3       29.84R
GLENDIVE       CLOUDY    52  48  87 SW7       29.86S
MILES CITY     CLOUDY    53  46  77 NW12      29.86S
BAKER          CLEAR     47  43  86 W7        29.87S
$$

CITY           SKY/WX    TMP DP  RH WIND       PRES   REMARKS
BILLINGS       MOCLDY    51  42  71 W13       29.94R
GREAT FALLS    PTCLDY    45  42  89 SW10      29.94R
REGINA         LGT RAIN  52  50  93 N8        29.83F
ESTEVAN        LGT RAIN  54  54 100 N6        29.76F
$$





USA.gov is the U.S. government's official web portal to all federal, state and local government web resources and services.